Moyie Springs, ID

7:06 AM PDT on August 27, 2016 (GMT -0700)
Boundary Cnty AP, Bonners Fer

Weather History for K65S - August, 2014

Change the Weather History Date:

Wednesday, August 13, 2014

  Actual Average (KSZT) Record (KSZT)
Temperature  
Mean Temperature 72 °F -  
Max Temperature 84 °F 82 °F 96 °F (1967)
Min Temperature 59 °F 49 °F 34 °F (1927)
Cooling Degree Days 6    
Growing Degree Days 22 (Base 50)    
Moisture  
Dew Point 57 °F    
Average Humidity 72    
Maximum Humidity 100    
Minimum Humidity 30    
Precipitation  
Precipitation 0.00 in - - ()
Sea Level Pressure  
Sea Level Pressure 29.97 in    
Wind  
Wind Speed 2 mph (SSW)    
Max Wind Speed 9 mph    
Max Gust Speed -    
Visibility 10 miles    
Events      
Averages and records for this station are not official NWS values.
T = Trace of Precipitation, MM = Missing Value Source: NWS Daily Summary

Daily Weather History Graph

Daily Weather History Graph

Search for Another Location

Airport or City:

Trip Planner

Search our weather history database for the weather conditions in past years. The results will help you decide how hot, cold, wet, or windy it might be!

Date:

Astronomy

Aug. 13, 2014 Rise Set
Actual Time 5:35 AM PDT 8:03 PM PDT
Civil Twilight 5:00 AM PDT 8:38 PM PDT
Nautical Twilight 4:16 AM PDT 9:22 PM PDT
Astronomical Twilight 3:24 AM PDT 10:13 PM PDT
Moon 9:26 PM PDT (8/13) 9:30 AM PDT (8/13)
Length of Visible Light 15h 38m
Length of Day
14h 27m
Waning Gibbous, 87% of the Moon is Illuminated
Aug 13
Waning Gibbous
Aug 17
Last Quarter
Aug 25
New
Sep 2
First Quarter
Sep 8
Full

Hourly Weather History & Observations

Time (PDT) Temp. Heat Index Dew Point Humidity Pressure Visibility Wind Dir Wind Speed Gust Speed Precip Events Conditions
12:15 AM 62.6 °F - 60.8 °F 94% 29.94 in 10.0 mi NNW 3.5 mph - N/A   Scattered Clouds
12:35 AM 62.6 °F - 60.8 °F 94% 29.95 in 10.0 mi Calm Calm - N/A   Mostly Cloudy
12:55 AM 62.6 °F - 59.0 °F 88% 29.96 in 10.0 mi Calm Calm - N/A   Partly Cloudy
1:15 AM 62.6 °F - 59.0 °F 88% 29.96 in 10.0 mi South 4.6 mph - N/A   Partly Cloudy
1:35 AM 62.6 °F - 59.0 °F 88% 29.96 in 10.0 mi South 4.6 mph - N/A   Clear
1:55 AM 60.8 °F - 59.0 °F 94% 29.96 in 10.0 mi Calm Calm - N/A   Clear
2:15 AM 60.8 °F - 59.0 °F 94% 29.97 in 10.0 mi Calm Calm - N/A   Scattered Clouds
2:35 AM 59.0 °F - 59.0 °F 100% 29.97 in 10.0 mi Calm Calm - N/A   Mostly Cloudy
2:55 AM 60.8 °F - 59.0 °F 94% 29.97 in 10.0 mi Calm Calm - N/A   Mostly Cloudy
3:15 AM 60.8 °F - 59.0 °F 94% 29.97 in 10.0 mi Calm Calm - N/A   Partly Cloudy
3:35 AM 60.8 °F - 59.0 °F 94% 29.98 in 10.0 mi Calm Calm - N/A   Partly Cloudy
3:55 AM 59.0 °F - 59.0 °F 100% 29.98 in 10.0 mi Calm Calm - N/A   Clear
4:15 AM 59.0 °F - 59.0 °F 100% 29.98 in 10.0 mi Calm Calm - N/A   Clear
4:35 AM 59.0 °F - 59.0 °F 100% 29.99 in 7.0 mi SSE 3.5 mph - N/A   Clear
4:55 AM 59.0 °F - 59.0 °F 100% 30.00 in 10.0 mi Calm Calm - N/A   Clear
5:35 AM 60.8 °F - 57.2 °F 88% 30.00 in 10.0 mi ESE 3.5 mph - N/A   Clear
5:55 AM 59.0 °F - 57.2 °F 94% 30.01 in 10.0 mi Calm Calm - N/A   Clear
6:15 AM 59.0 °F - 57.2 °F 94% 30.01 in 10.0 mi East 4.6 mph - N/A   Clear
6:35 AM 59.0 °F - 57.2 °F 94% 30.01 in 10.0 mi Calm Calm - N/A   Clear
6:55 AM 59.0 °F - 59.0 °F 100% 30.01 in 10.0 mi Calm Calm - N/A   Clear
7:35 AM 62.6 °F - 59.0 °F 88% 30.01 in 10.0 mi Calm Calm - N/A   Clear
8:15 AM 62.6 °F - 59.0 °F 88% 30.03 in 10.0 mi Calm Calm - N/A   Clear
8:35 AM 64.4 °F - 60.8 °F 88% 30.02 in 10.0 mi Calm Calm - N/A   Clear
8:55 AM 64.4 °F - 60.8 °F 88% 30.03 in 10.0 mi Calm Calm - N/A   Clear
9:15 AM 64.4 °F - 60.8 °F 88% 30.02 in 10.0 mi Calm Calm - N/A   Clear
9:35 AM 66.2 °F - 62.6 °F 88% 30.02 in 10.0 mi Calm Calm - N/A   Clear
10:15 AM 69.8 °F - 60.8 °F 73% 30.01 in 10.0 mi NNW 3.5 mph - N/A   Clear
10:35 AM 71.6 °F - 60.8 °F 69% 30.01 in 10.0 mi WSW 3.5 mph - N/A   Clear
10:55 AM 73.4 °F - 60.8 °F 65% 30.00 in 10.0 mi West 4.6 mph - N/A   Clear
11:15 AM 75.2 °F - 59.0 °F 57% 30.00 in 10.0 mi SW 3.5 mph - N/A   Clear
11:35 AM 75.2 °F - 60.8 °F 61% 29.99 in 10.0 mi Calm Calm - N/A   Clear
11:55 AM 77.0 °F - 57.2 °F 50% 29.98 in 10.0 mi WSW 3.5 mph - N/A   Clear
12:15 PM 78.8 °F - 57.2 °F 47% 29.97 in 10.0 mi Calm Calm - N/A   Clear
12:35 PM 80.6 °F 80.5 °F 55.4 °F 42% 29.97 in 10.0 mi SSW 5.8 mph - N/A   Clear
12:55 PM 82.4 °F 81.4 °F 53.6 °F 37% 29.96 in 10.0 mi SSW 5.8 mph - N/A   Clear
1:15 PM 82.4 °F 81.4 °F 53.6 °F 37% 29.96 in 10.0 mi WSW 6.9 mph - N/A   Clear
1:35 PM 82.4 °F 81.7 °F 55.4 °F 39% 29.96 in 10.0 mi SSW 3.5 mph - N/A   Clear
1:55 PM 82.4 °F 81.4 °F 53.6 °F 37% 29.95 in 10.0 mi SSW 4.6 mph - N/A   Clear
2:15 PM 84.2 °F - 50.0 °F 30% 29.94 in 10.0 mi SW 5.8 mph - N/A   Clear
2:35 PM 82.4 °F - 51.8 °F 35% 29.94 in 10.0 mi SW 4.6 mph - N/A   Clear
2:55 PM 82.4 °F - 51.8 °F 35% 29.93 in 10.0 mi SSW 8.1 mph - N/A   Clear
3:15 PM 82.4 °F 81.4 °F 53.6 °F 37% 29.93 in 10.0 mi South 5.8 mph - N/A   Clear
3:35 PM 82.4 °F 81.7 °F 55.4 °F 39% 29.94 in 10.0 mi South 8.1 mph - N/A   Clear
3:55 PM 80.6 °F 80.3 °F 53.6 °F 39% 29.93 in 10.0 mi SSW 4.6 mph - N/A   Clear
4:15 PM 80.6 °F 80.5 °F 55.4 °F 42% 29.94 in 10.0 mi SSW 5.8 mph - N/A   Clear
4:35 PM 80.6 °F 80.3 °F 53.6 °F 39% 29.93 in 10.0 mi SSW 9.2 mph - N/A   Clear
9:15 PM 68.0 °F - 55.4 °F 64% 29.95 in 10.0 mi ESE 5.8 mph - N/A   Overcast
9:55 PM 68.0 °F - 55.4 °F 64% 29.96 in 10.0 mi ESE 5.8 mph - N/A   Overcast
10:15 PM 68.0 °F - 55.4 °F 64% 29.96 in 10.0 mi SSE 5.8 mph - N/A   Overcast
10:35 PM 68.0 °F - 55.4 °F 64% 29.96 in 10.0 mi SSE 3.5 mph - N/A   Overcast
10:55 PM 66.2 °F - 57.2 °F 73% 29.96 in 10.0 mi South 4.6 mph - N/A   Overcast
11:15 PM 66.2 °F - 55.4 °F 68% 29.96 in 10.0 mi Calm Calm - N/A   Overcast
11:35 PM 66.2 °F - 57.2 °F 73% 29.96 in 10.0 mi Calm Calm - N/A   Overcast
11:55 PM 66.2 °F - 57.2 °F 73% 29.96 in 10.0 mi East 3.5 mph - N/A   Overcast